Regional Weather Roundup
Issued by NWS

Home | Current Version | Previous Version | Graphics & Text | Print | Product List | Glossary On
Versions: 1 2 3 4 5 6 7 8 9 10 11 12 13 14 15 16 17 18 19 20 21 22 23 24 25 26 27 28 29 30 31 32 33 34 35 36 37 38 39 40 41 42 43 44 45 46 47 48 49 50
000
ASUS43 KLOT 241003
RWRIL

ILLINOIS REGIONAL WEATHER ROUNDUP
NATIONAL WEATHER SERVICE CHICAGO/ROMEOVILLE IL
400 AM CST SAT FEB 24 2018

NOTE: "FAIR" INDICATES FEW OR NO CLOUDS BELOW 12,000 FEET WITH NO
SIGNIFICANT WEATHER AND/OR OBSTRUCTIONS TO VISIBILITY.

* THESE STATIONS ARE NOT UNDER NWS QUALITY CONTROL. THEY ALSO MAY NOT
  REPORT WEATHER SUCH AS PRECIPITATION OR FOG.

ILZ001-002-007-009-015-016-024-241100-
NORTHWEST ILLINOIS

CITY           SKY/WX    TMP DP  RH WIND       PRES   REMARKS
MOLINE         CLOUDY    30  25  81 NE9       30.15F WCI  22
STERLING*        N/A     30  28  92 MISG        N/A
SAVANNA*       FAIR      27  24  90 NE8       30.19F WCI  19
$$

ILZ003-004-008-010-011-017-018-241100-
NORTH CENTRAL ILLINOIS

CITY           SKY/WX    TMP DP  RH WIND       PRES   REMARKS
ROCKFORD       MOCLDY    29  25  85 NE9       30.21F WCI  20
FREEPORT*      FAIR      28  25  90 NE15      30.21S WCI  16
ROCHELLE*      FAIR      31  29  92 NE13      30.20F WCI  21
DE KALB*       FAIR      31  28  91 NE10      30.20F WCI  22
PERU*          CLOUDY    31  28  88 NE10      30.19S WCI  23
$$

ILZ005-006-012>014-019>023-241100-
NORTHEAST ILLINOIS

CITY           SKY/WX    TMP DP  RH WIND       PRES   REMARKS
CHICAGO-OHARE  CLOUDY    33  28  81 NE10      30.21F WCI  25
CHICAGO-MIDWAY CLOUDY    35  31  85 NE10      30.21F WCI  27
AURORA         FAIR      32  29  88 NE9       30.20F WCI  24
LANSING*       CLOUDY    34  32  92 NE8       30.21F WCI  27
JOLIET*        CLOUDY    34  31  89 NE8       30.20F WCI  27
WAUKEGAN       FAIR      31  27  85 NE7       30.22S WCI  24
DUPAGE AIRPORT FAIR      31  29  92 NE9       30.19F FOG     WCI  23
KANKAKEE*      CLOUDY    35  33  92 NE8       30.19F WCI  29
WHEELING       FAIR      33  30  88 NE8       30.23F WCI  26
MORRIS*        CLOUDY    32  30  91 NE6       30.19F WCI  27
ROMEOVILLE*    CLOUDY    32  30  91 NE9       30.20F WCI  24
NORTHERLY ISL    N/A     34  31  89 N10         N/A  WCI  26
$$

LMZ740>746-241100-
SOUTHERN LAKE MICHIGAN

STATION/POSITION SKY/WX   TEMP    WIND        PRES    VSBY  WAVE
                          AIR SEA DIR/SP/G                  HT/PER
                          (F)     (DEG/KT/KT) (MB)    (MI)  (FT/S)
HARRISON CRIB              35      20/ 11/ 12   N/A
BURNHAM HARBOR             34      30/  8/ 10   N/A
CALUMET HARBOR             33      10/  7/ 10 1022.9F
BURNS HARBOR               34      CALM  /  4 1024.4R
MICHIGAN CITY              34      50/  2/  3   N/A
$$

ILZ025>027-034>036-040-047-049-050-058-095>099-241100-
WEST-CENTRAL ILLINOIS

CITY           SKY/WX    TMP DP  RH WIND       PRES   REMARKS
QUINCY         LGT RAIN  34  31  88 NE16      30.08F FOG     WCI  24
GALESBURG*     CLOUDY    32  30  92 NE9       30.15F WCI  24
MACOMB*        CLOUDY   N/A N/A N/A NE12      30.14F
JACKSONVILLE*  DRIZZLE   35  34  94 E15       30.09F WCI  25
PITTSFIELD*    DRIZZLE   36  35  98 NE12      30.09F WCI  27
$$

ILZ028>032-037-038-041>044-048-051>054-059>061-241100-
CENTRAL ILLINOIS

CITY           SKY/WX    TMP DP  RH WIND       PRES   REMARKS
BLOOMINGTON    LGT RAIN  34  32  92 NE14      30.14F FOG     WCI  25
DECATUR        LGT RAIN  37  37 100 E15       30.11F WCI  28
PEORIA         LGT RAIN  34  29  82 NE10      30.14F WCI  26
LACON*         CLOUDY    32  29  90 NE8       30.16F WCI  25
LINCOLN*       LGT RAIN  36  36 100 NE10      30.12F WCI  28
SPRINGFIELD    LGT RAIN  37  35  92 NE10      30.11F WCI  30
TAYLORVILLE    DRIZZLE   37  36  97 E10       30.12S WCI  29
$$

ILZ033-039-045-046-055>057-062-063-241100-
EAST-CENTRAL ILLINOIS

CITY           SKY/WX    TMP DP  RH WIND       PRES   REMARKS
CHAMPAIGN      LGT RAIN  37  36  96 NE15      30.12F FOG     WCI  28
DANVILLE*      LGT RAIN  36  35  95 NE9       30.13F WCI  29
RANTOUL*       RAIN      38  37  99 NE10      30.14F WCI  31
MATTOON        LGT RAIN  38  38 100 E10       30.12F WCI  31
PARIS*         LGT RAIN  38  38 100 NE7       30.15S WCI  32
$$

ILZ079-100>102-241100-
SOUTHWEST ILLINOIS

CITY           SKY/WX    TMP DP  RH WIND       PRES   REMARKS
ALTON          RAIN      38  38 100 NE5       30.10F WCI  34
BELLEVILLE     LGT RAIN  41  40  94 NE9       30.06F
CAHOKIA*       RAIN      41  39  93 NE7       30.07F
SPARTA*        LGT RAIN  43  43 100 E13       30.06F
$$

ILZ064>066-069>071-074>076-080>082-084>086-088>090-092>094-241100-
SOUTH-CENTRAL ILLINOIS

CITY           SKY/WX    TMP DP  RH WIND       PRES   REMARKS
CARBONDALE     CLOUDY    47  46  97 NE9       30.08F
CAIRO*         DRIZZLE   49  48  99 NE10      30.04F
EFFINGHAM*     RAIN      40  40 100 NE3       30.14F
MARION         RAIN      47  46  99 NE8       30.08F
MT. VERNON     RAIN      43  42  97 NE3       30.13R FOG
SALEM*         HVY RAIN  43  41  92 NE5       30.12R
METROPOLIS*    CLOUDY    49  48  96 NE6       30.05F
$$

ILZ067-068-072-073-078-083-087-091-241100-
SOUTHEAST ILLINOIS

CITY           SKY/WX    TMP DP  RH WIND       PRES   REMARKS
LAWRENCEVILLE  CLOUDY    45  44  97 N9        30.12S
FLORA*         MIX PCPN  44  42  96 NE6       30.12S
FAIRFIELD*     CLOUDY    45  44  99 MISG      30.10F
HARRISBURG*    HVY RAIN  48  47  97 NE5       30.09S
ROBINSON*      LGT RAIN  42  42 100 NE8       30.13F
$$

ABBREVIATIONS USED IN REMARKS
   TC - TEMPERATURE IN CELSIUS
  WCI - WIND CHILL INDEX
   HX - HEAT INDEX
  VSB - VISIBILITY
$$





USA.gov is the U.S. government's official web portal to all federal, state and local government web resources and services.